Showing default

QIANFAN-39, 62240

Orbit data source: Space-Track

QIANFAN-39, 62240 is a Chinese payload satellite in LEO that was launched on Thu, 05 Dec 2024 UTC via a CHANG ZHENG 6A launch vehicle from the Taiyaun Space Center, China (TSC). Payloads include a variety of satellites, spacecraft, and rockets equipped with specific instruments for various scientific and technological missions. These include communications satellites like Starlink; space stations such as the ISS; scientific satellites like the Hubble; Earth observation satellites from companies like Planet Labs, Umbra, and HawkEye 360; GPS; miniature CubeSats for education and research; and military/defense satellites.

Loading next visibility...
QIANFAN-39 details
Identifier
62240, 2024-232D
Orbit
LEO
Last TLE update11 hours ago
Origin
Flag of CNYUANX (CN / PRC)
ManufacturerSECM
MissionOperational Commercial Communications
Bus & MotorQIANFAN, Unknown motor
Mass300 kg wet, ~300 kg dry
Launch date (UTC)
2024-12-05 (2 months ago)
Launch vehicle
CHANG ZHENG 6A
Launch site
Taiyaun Space Center, China (TSC)
Object type
Payload
Rocket body
Debris
Shape & HBRBox + 1 Pan, 10 m
Radar Cross Section13.200 m², Large (>1 m²)

Expand to show TLE details & history

TLE from 11 hours ago
0 QIANFAN-39
1 62240U 24232D   25035.81455138  .00000506  00000-0  20960-3 0  9998
2 62240  88.9888  73.0412 0016816  25.0410 335.1595 14.25058798 57109
Epoch: 2025-02-04T19:32Z
Definitive object data (Epoch: 2025-02-04T19:32:57.239Z)
Latitude0.00001°
Longitude4.58827°
Altitude800.39 km
Speed7.459 km/s
True Right ascension04h 52m 09s
True Declination0° 00' 00"
Sunlit
Object was in daylight at TLE epoch
Visualization TLE readout
Latitude-58.78186°
Longitude-173.80573°
Altitude841.008 km
Speed7.426 km/s
Apparent Right ascension19h 10m 24s
Apparent Declination-53° 22' 02"
Sunlit
Object is in daylight
Visualization observer readout
Local Sidereal Time08:48:50
Azimuth137.101° SSE
Elevation-68.592°
Doppler factor1
Orbital elements
Apogee altitude817.319 km
Perigee altitude793.159 km
Semi-major axis7,183.376 km
Eccentricity0.0016816
Inclination88.9888°
RAAN73.0412°
Arg. of periapsis25.041°
True anomaly335.07839°
Mean anomaly335.1595°
Eccentric anomaly335.11896°
Mean motion3.56492 °/min
BSTAR0.0002096
Orbital period100.98 mins
Loading maneuver chart data...
Loading historical data...
Loading historical data...
Loading historical data...
Loading historical data...
Loading historical data...
Loading historical data...
Loading historical data...

QIANFAN-39 Visibility forecast

Observer location: undefined°, undefined

Span
Click to sort rows by Start time (UTC) header in descending order
Start Az.
Max El. time (UTC)
Max El. Az.
Max El.
End time (UTC)
End Az.
10 mins2025-02-05 14:39:36.958Z1.119° NNE2025-02-05 14:44:36.958Z174.146° S44.859°2025-02-05 14:49:36.958Z182.181° SSW
8 mins2025-02-06 02:00:36.958Z138.172° SSE2025-02-06 02:04:36.958Z74.792° E28.784°2025-02-06 02:08:36.958Z20.513° NNE
7 mins2025-02-06 03:42:36.958Z233.939° WSW2025-02-06 03:45:36.958Z281.728° WNW24.178°2025-02-06 03:49:36.958Z333.28° NNW
|